Location: Ravensburg
(47.7866°N, 9.6124°E)
Time: 18:35:11
(UTC+01:00)

ISS - Pass Details

Date: 18 November 2025
Orbit: 416 x 421 km, 51.6° (Epoch: 05 December)

Event Time Altitude Azimuth Distance (km) Brightness Sun altitude
Rises 18:58:07 0° 267° (W) 2,366 1.6 -22.8°
Reaches altitude 10° 19:00:16 10° 274° (W) 1,501 0.1 -23.1°
Enters shadow 19:02:43 37° 306° (NW) 665 -2.4 -23.5°
